Weather in Miyaly

Kazakhstan     48°52′58″N   53°47′45″E
temp.,
°C
wind,
m/s
gust,
m/s
humid.,
%
clouds,
%
prec.,
mm/h
press.,
hPa
HPBL,
m
16 april, fri
fri1623:00+15e61440100 0.0 1016223
02:00+13ese61444100 0.0 1015262
05:00+12ese4848100 0.0 1015119
08:00+12ese484880 0.0 1015166
11:00+19se79363 0.0 1015842
14:00+22sse7103760 0.0 10142869
17:00+22sse6833100 0.0 10132267
20:00+18s344861 0.1 101363
17 april, sat
sat1723:00+14se47550 0.1 1013116
02:00+12se477351 0.6 1014130
05:00+11se457932 0.6 101578
08:00+12ese357873 0.0 1015183
11:00+16sse236455 0.1 10151010
14:00+18w225425 0.9 10161341
17:00+19nw334783 0.9 10161523
20:00+16nw33575 0.0 101629
18 april, sun
sun1823:00+14nw447067 0.0 101766
02:00+12nnw227593 0.0 101814
05:00+11n2280100 0.0 101815
08:00+12nne2276100 0.0 101986
11:00+17n225781 0.0 1018543
14:00+20nne124484 0.0 10181337
17:00+21n124041 0.0 10171783
20:00+18wnw1153100 0.0 101611
19 april, mon
mon1923:00+17wsw2255100 0.0 101720
02:00+15wnw3362100 0.0 101634
05:00+14se1263100 0.0 101614
08:00+15wsw2267100 0.0 101679
11:00+18se4454100 0.0 1017758
14:00+17ese8858100 0.0 1017733
17:00+15e81160100 0.0 1018522
20:00+14e91358100 0.0 1019715
20 april, tue
tue2023:00+11e10146565 0.0 1020666
02:00+9e101465100 0.0 1022593
05:00+8e101550100 0.0 1023659
08:00+6e101546100 0.0 1025667
11:00+9ese11144144 0.0 1025802
14:00+13ese11123696 0.0 10251126
17:00+14ese10123244 0.0 10251344
20:00+11e9143394 0.0 1025756